Regional Weather Roundup
Issued by NWS

Home | Current Version | Previous Version | Graphics & Text | Print | Product List | Glossary On
Versions: 1 2 3 4 5 6 7 8 9 10 11 12 13 14 15 16 17 18 19 20 21 22 23 24 25 26 27 28 29 30 31 32 33 34 35 36 37 38 39 40 41 42 43 44 45 46 47 48 49
000
ASUS45 KBOU 221007
RWRCO

WEATHER ROUNDUP FOR COLORADO
NATIONAL WEATHER SERVICE DENVER/BOULDER CO
300 AM MST MON DEC 22 2014

NOTE: "FAIR" INDICATES FEW OR NO CLOUDS BELOW 12000 FEET WITH NO
SIGNIFICANT WEATHER AND/OR OBSTRUCTIONS TO VISIBILITY.

COZ001>005-013-030-031-221100-
...NORTHWEST COLORADO...

CITY           SKY/WX    TMP DP  RH WIND       PRES   REMARKS
CRAIG          CLOUDY    35  27  72 W18G24    29.86R WCI  24
HAYDEN         MOCLDY    32  25  74 W10       29.84R WCI  24
MEEKER         CLOUDY    37  26  64 NW9       29.87F
MOUNT WERNER   NOT AVBL
STEAMBOAT SPGS CLOUDY    31  24  74 W18       29.82R WCI  19
WALDEN         PTCLDY    21  12  68 W13       29.76R WCI   9
$$

COZ006>008-011-221100-
...WEST CENTRAL VALLEYS...

CITY           SKY/WX    TMP DP  RH WIND       PRES   REMARKS
GRAND JUNCTION CLOUDY    32  31  96 CALM      29.89R
MONTROSE       CLOUDY    31  30  96 SE5       29.91S WCI  26
EAGLE          CLOUDY    36  30  80 NW8       29.85R
RIFLE          CLOUDY    35  32  88 W21       29.87R WCI  24
DELTA          CLOUDY    35  32  90 E7        29.89R WCI  29
NUCLA          CLOUDY    36  32  87 E3        29.96F
$$

COZ017>023-064>068-221100-
...SOUTHWEST COLORADO...

CITY           SKY/WX    TMP DP  RH WIND       PRES   REMARKS
DURANGO        MOCLDY    42  29  59 W23G37    29.86R
CORTEZ         MOCLDY    34  31  88 NE3       29.96S
PAGOSA SPRINGS LGT SNOW  31  31 100 NE3       29.88S
TELLURIDE      LGT SNOW  32  32  99 W22G29    29.95F WCI  19
WOLF CREEK PAS LGT SNOW  19  19 100 MISG      29.89S VSB 3/4
$$

COZ009-010-012-014-032>034-037-058>063-221100-
...CENTRAL COLORADO...

CITY           SKY/WX    TMP DP  RH WIND       PRES   REMARKS
ASPEN          LGT SNOW  31  27  85 N13G24    29.81S VSB 1   WCI  21
BUENA VISTA    CLOUDY    31  25  78 W6        29.72F WCI  25
COPPER MTN     CLOUDY    19  14  79 W35G47    29.71F WCI  -1
BERTHOUD PASS  HVY SNOW   9   3  78 MISG      29.59F VSB<1/4
COTTONWOOD PAS CLOUDY    32  21  64 N6        29.73S WCI  26
GUNNISON       CLOUDY    34  28  80 W8        29.82R WCI  27
KREMMLING      FLURRIES  32  21  64 NW13G21   29.81S WCI  22
LEADVILLE      LGT SNOW  21  19  92 NW15      29.74F FOG     WCI   8
MONARCH PASS   CLOUDY    21  18  86 MISG      29.86F
SALIDA         CLOUDY    35  31  87 MISG      29.82S
SUNLIGHT       CLOUDY   N/A N/A N/A MISG      29.87R
WILKERSON PASS LGT SNOW  18  14  86 NW16G29   29.73F WCI   3
$$

COZ069>075-221100-
...SAN LUIS VALLEY/SANGRE DE CRISTO MOUNTAINS...

CITY           SKY/WX    TMP DP  RH WIND       PRES   REMARKS
ALAMOSA        CLOUDY    35  28  75 N9        29.77R WCI  28
LA VETA PASS   CLOUDY    27  23  86 S6        29.79R WCI  20
SAGUACHE       LGT SNOW  32  32 100 NW13G20   29.77R VSB 1   WCI  22
$$

COZ035-036-038>040-221100-
...NORTHERN COLORADO FRONT RANGE...

CITY           SKY/WX    TMP DP  RH WIND       PRES   REMARKS
DENVER INTL AP MOCLDY    34  28  79 W9        29.72S WCI  27
DMNS CITY PARK   N/A     33  31  94 NE2       29.72S
AURORA         CLOUDY    34  31  86 NW2       29.74R
FRONT RANGE AP MOCLDY    34  32  93 W9        29.73R WCI  26
ERIE MUNI ARPT   N/A     32  30  93 SE3       29.73R
BOULDER MUN AP CLOUDY    36  32  87 CALM      29.71S
CENTENNIAL     CLOUDY    32  30  92 N3        29.72S
BROOMFIELD     MOCLDY    34  30  86 E5        29.72S WCI  30
FORT COLLINS   PTCLDY    28  18  64 N8        29.72S WCI  20
LONGMONT       PTCLDY    32  29  88 W5        29.74S WCI  27
$$

COZ041-046-047-076>085-087-088-221100-
...PIKES PEAK/PALMER DIVIDE AND SOUTHERN FOOTHILLS...

CITY           SKY/WX    TMP DP  RH WIND       PRES   REMARKS
COLO. SPRINGS  CLOUDY    33  28  81 N10       29.73S WCI  25
A. F. ACADEMY  MOCLDY    30  27  90 N5        29.72S WCI  25
ELLICOTT       NOT AVBL
FALCON         CLOUDY    29  27  90 N14       29.72S WCI  19
FORT CARSON    MOCLDY    32  32 100 N13       29.71S WCI  22
LIMON          CLOUDY    32  27  81 W12       29.70S WCI  23
MONUMENT HILL  CLOUDY    27  27 100 N3        29.71S
TRINIDAD       LGT SNOW  33  31  92 NE10      29.76R VSB 3/4 WCI  25
$$

COZ042>045-048>051-090-091-221100-
...NORTHEAST COLORADO...

CITY           SKY/WX    TMP DP  RH WIND       PRES   REMARKS
GREELEY ARPT   CLEAR     34  21  60 N14       29.71R WCI  24
AKRON          MOCLDY    31  28  89 W10       29.66S WCI  22
BURLINGTON     CLOUDY    36  31  82 NW17      29.66R
WRAY           MOCLDY    37  31  79 W14       29.63R
STERLING       MOCLDY    34  30  86 N7        29.66S WCI  28
HOLYOKE        MOCLDY    39  30  70 NW17G24   29.61S
FORT MORGAN    MOCLDY    31  24  74 NW17      29.69R WCI  19
$$

COZ086-089-092>099-221100-
...SOUTHEAST COLORADO...

CITY           SKY/WX    TMP DP  RH WIND       PRES   REMARKS
PUEBLO         FLURRIES  38  30  73 N16G28    29.73R
LA JUNTA       CLOUDY    38  32  79 W7        29.71R
LAMAR          CLOUDY    38  33  82 W6        29.69R
SPRINGFIELD      N/A     38  35  89 NW21G28   29.66R
$$


USA.gov is the U.S. government's official web portal to all federal, state and local government web resources and services.